Location: Arcusa
(42.3167°N, 0.0833°W)
Time: 18:55:00
(UTC+00:00)

STARLINK-1010 - Pass Details

Date: 25 January 2020
Orbit: 404 x 406 km, 53.0° (Epoch: 25 February)

Event Time Altitude Azimuth Distance (km) Brightness Sun altitude
Exits shadow 05:51:59 33° 328° (NNW) 708 3.8 -16.4°
Maximum altitude 05:52:05 33° 332° (NNW) 707 3.8 -16.4°
Drops below altitude 10° 05:55:06 10° 39° (NE) 1,469 6.2 -15.8°
Sets 05:57:19 0° 49° (NE) 2,333 7.4 -15.4°
